| time (UTC) | temp C | wind direction | speed KPH | gust KPH | rain 1hr cm | rain 24hr cm | rain mn cm | humidity % | barometer mb |
| 20260504001547 | 12 | 163 | 1.6 | 19.3 | 0.00 | 0.00 | 0.00 | 44 | 1012.5 |
| 20260504000037 | 13 | 187 | 1.6 | 6.4 | 0.00 | 0.00 | 0.00 | 43 | 1012.5 |
| 20260503234535 | 13 | 0 | 6.4 | 19.3 | 0.00 | 0.00 | 0.00 | 42 | 1012.5 |
| 20260503233038 | 13 | 0 | 4.8 | 12.9 | 0.00 | 0.00 | 0.00 | 42 | 1012.7 |
| 20260503231546 | 13 | 160 | 1.6 | 22.5 | 0.00 | 0.00 | 0.00 | 41 | 1012.7 |
| 20260503230038 | 13 | 191 | 1.6 | 22.5 | 0.00 | 0.00 | 0.00 | 41 | 1012.9 |
| 20260503224537 | 14 | 232 | 6.4 | 27.4 | 0.00 | 0.00 | 0.00 | 40 | 1012.8 |
| 20260503223039 | 14 | 248 | 8.0 | 20.9 | 0.00 | 0.00 | 0.00 | 40 | 1012.9 |
| 20260503221535 | 14 | 161 | 4.8 | 24.1 | 0.00 | 0.00 | 0.00 | 43 | 1013.0 |
| 20260503220040 | 14 | 163 | 3.2 | 19.3 | 0.00 | 0.00 | 0.00 | 42 | 1013.0 |
| 20260503214544 | 15 | 163 | 6.4 | 19.3 | 0.00 | 0.00 | 0.00 | 40 | 1013.1 |
| 20260503213052 | 15 | 198 | 8.0 | 25.7 | 0.00 | 0.00 | 0.00 | 40 | 1013.1 |
| 20260503211556 | 15 | 242 | 9.7 | 32.2 | 0.00 | 0.00 | 0.00 | 38 | 1013.1 |
| 20260503210036 | 15 | 190 | 6.4 | 19.3 | 0.00 | 0.00 | 0.00 | 38 | 1013.2 |
| 20260503204550 | 15 | 258 | 6.4 | 25.7 | 0.00 | 0.00 | 0.00 | 40 | 1013.2 |
| 20260503203040 | 15 | 132 | 4.8 | 25.7 | 0.00 | 0.00 | 0.00 | 40 | 1013.0 |
| 20260503201539 | 16 | 142 | 6.4 | 24.1 | 0.00 | 0.00 | 0.00 | 39 | 1013.3 |
| 20260503200037 | 15 | 200 | 4.8 | 24.1 | 0.00 | 0.00 | 0.00 | 42 | 1013.6 |
| 20260503194539 | 15 | 174 | 1.6 | 16.1 | 0.00 | 0.00 | 0.00 | 42 | 1014.0 |
| 20260503193036 | 15 | 234 | 3.2 | 22.5 | 0.00 | 0.00 | 0.00 | 40 | 1014.2 |
| 20260503191550 | 15 | 0 | 4.8 | 16.1 | 0.00 | 0.00 | 0.00 | 40 | 1014.4 |
| 20260503190039 | 15 | 219 | 8.0 | 22.5 | 0.00 | 0.00 | 0.00 | 37 | 1014.6 |
| 20260503184544 | 15 | 197 | 6.4 | 22.5 | 0.00 | 0.00 | 0.00 | 36 | 1014.9 |
| 20260503183104 | 15 | 265 | 8.0 | 22.5 | 0.00 | 0.00 | 0.00 | 38 | 1015.0 |
| 20260503181537 | 13 | 213 | 4.8 | 32.2 | 0.00 | 0.00 | 0.00 | 42 | 1015.1 |
| 20260503180037 | 14 | 281 | 6.4 | 16.1 | 0.00 | 0.00 | 0.00 | 42 | 1015.1 |
| 20260503174544 | 15 | 196 | 3.2 | 22.5 | 0.00 | 0.00 | 0.00 | 41 | 1015.4 |
| 20260503173039 | 15 | 0 | 3.2 | 20.9 | 0.00 | 0.00 | 0.00 | 46 | 1015.4 |
| 20260503171538 | 15 | 210 | 3.2 | 14.5 | 0.00 | 0.00 | 0.00 | 46 | 1015.8 |
| 20260503081553 | 1 | 0 | 0.0 | 6.4 | 0.00 | 0.05 | 0.00 | 82 | 1016.5 |
| 20260503071558 | 2 | 0 | 0.0 | 1.6 | 0.00 | 0.13 | 0.00 | 83 | 1016.5 |
| 20260503054551 | 2 | 0 | 0.0 | 4.8 | 0.00 | 0.23 | 0.00 | 81 | 1016.9 |
| 20260503053040 | 2 | 0 | 0.0 | 1.6 | 0.00 | 0.23 | 0.00 | 79 | 1016.9 |
| 20260503051547 | 2 | 0 | 0.0 | 3.2 | 0.00 | 0.23 | 0.00 | 78 | 1017.0 |
| 20260503050038 | 3 | 0 | 0.0 | 4.8 | 0.00 | 0.23 | 0.00 | 77 | 1016.9 |
| 20260503044538 | 3 | 0 | 0.0 | 3.2 | 0.00 | 0.58 | 0.00 | 76 | 1017.0 |
| 20260503043037 | 3 | 0 | 0.0 | 4.8 | 0.00 | 0.58 | 0.00 | 76 | 1016.9 |
| 20260503041537 | 3 | 0 | 0.0 | 1.6 | 0.00 | 0.58 | 0.00 | 76 | 1017.1 |
| 20260503040038 | 3 | 0 | 0.0 | 4.8 | 0.00 | 0.58 | 0.00 | 76 | 1017.2 |
| 20260503034543 | 3 | 0 | 0.0 | 4.8 | 0.00 | 0.58 | 0.58 | 76 | 1017.2 |
| 20260503033050 | 3 | 203 | 0.0 | 6.4 | 0.00 | 0.58 | 0.58 | 76 | 1017.3 |
| 20260503031539 | 4 | 0 | 0.0 | 4.8 | 0.00 | 0.58 | 0.58 | 75 | 1017.3 |
| 20260503030038 | 4 | 201 | 0.0 | 4.8 | 0.00 | 0.58 | 0.58 | 75 | 1017.4 |
| 20260503024544 | 4 | 0 | 0.0 | 3.2 | 0.00 | 0.58 | 0.58 | 75 | 1017.5 |
| 20260503023044 | 4 | 0 | 0.0 | 3.2 | 0.00 | 0.58 | 0.58 | 74 | 1017.7 |
| 20260503021537 | 4 | 0 | 0.0 | 4.8 | 0.00 | 0.58 | 0.58 | 73 | 1017.5 |
| 20260503020041 | 4 | 0 | 0.0 | 1.6 | 0.00 | 0.58 | 0.58 | 72 | 1017.6 |
| 20260503014537 | 4 | 0 | 0.0 | 0.0 | 0.00 | 0.58 | 0.58 | 72 | 1017.6 |
| 20260503013037 | 4 | 0 | 0.0 | 0.0 | 0.00 | 0.58 | 0.58 | 71 | 1017.6 |
| 20260503011534 | 4 | 0 | 0.0 | 0.0 | 0.00 | 0.58 | 0.58 | 68 | 1017.5 |
| 20260503010039 | 5 | 0 | 0.0 | 0.0 | 0.00 | 0.58 | 0.58 | 68 | 1017.5 |
| 20260503004539 | 5 | 0 | 0.0 | 1.6 | 0.00 | 0.58 | 0.58 | 66 | 1017.4 |
| 20260503003039 | 5 | 0 | 0.0 | 6.4 | 0.00 | 0.58 | 0.58 | 64 | 1017.2 |